Погода в Харькове

Украина / Харьковская область     49°59′31″N   36°13′52″E
темп.,
°C
ветер,
м/с
пор.,
м/с
влажн.,
%
обл.,
%
осадки,
мм/ч
давл.,
гПа
погр.,
м
25 июня, сб
сб2500:00+15св4109181 0.0 1012382
03:00+15св389338 0.0 1013288
06:00+15св41087100 0.1 1013440
09:00+18св478099 0.3 1014571
12:00+19св467797 0.0 1015701
15:00+19всв5883100 1.3 1015710
18:00+18св3888100 0.1 1016349
21:00+18ссв279091 0.1 1016249
26 июня, вс
вс2600:00+17св3896100 1.6 1016231
03:00+17ссв389578 4.4 1017224
06:00+17св41191100 0.0 1017353
09:00+22всв597075 0.0 1018603
12:00+24всв6859100 0.1 10181324
15:00+26всв6850100 0.1 10182228
18:00+25всв4856100 0.0 10181610
21:00+22св397181 0.0 1019299
27 июня, пн
пн2700:00+19св4117927 0.0 1020359
03:00+18св311833 0.0 1020327
06:00+18св411792 0.0 1021435
09:00+22всв59550 0.0 1021897
12:00+26всв68450 0.0 10211478
15:00+27всв68400 0.0 10201558
18:00+26всв46460 0.0 10191281
21:00+21всв25640 0.0 1020127
28 июня, вт
вт2800:00+20св22670 0.0 102029
03:00+18ссв22700 0.0 101940
06:00+19с25720 0.0 1018129
09:00+25ссв34650 0.0 1018532
12:00+28св465778 2.0 10171471
15:00+30св674147 2.3 10162609
18:00+28св56510 0.0 10161585
21:00+23св49682 0.1 1018462
29 июня, ср
ср2900:00+21св410805 0.0 1019421
03:00+18св39755 0.0 1020315
06:00+17всв48755 0.0 1020304
09:00+21всв46540 0.0 1021826
12:00+24всв55420 0.0 10211551
15:00+25св55385 0.0 10201955
18:00+23св554525 0.0 10201928
21:00+19всв510583 0.0 1021670